This is the latest recevied weather packets stored in our database for station/object N7CEE-2. If no packets are shown the sender has not sent any weather packets the latest 10 day(s).
| Time | Temp. | Humidity | Pressure | Rain* | Wind** | Luminosity | Snow |
|---|---|---|---|---|---|---|---|
| 1777539816 | 19.44° C | 28% | 1013.3 hPa | 0 mm | - | 0 W/m² | - |
| 1777539512 | 19.44° C | 29% | 1013.3 hPa | 0 mm | - | 0 W/m² | - |
| 1777539209 | 18.89° C | 29% | 1013.4 hPa | 0 mm | - | 0 W/m² | - |
| 1777538906 | 19.44° C | 29% | 1013.6 hPa | 0 mm | - | 0 W/m² | - |
| 1777538601 | 20° C | 28% | 1013.5 hPa | 0 mm | - | 0 W/m² | - |
| 1777538297 | 20° C | 28% | 1013.8 hPa | 0 mm | - | 0 W/m² | - |
| 1777537992 | 20° C | 30% | 1013.5 hPa | 0 mm | - | 0 W/m² | - |
| 1777537689 | 20° C | 29% | 1013.4 hPa | 0 mm | - | 0 W/m² | - |
| 1777537385 | 20.56° C | 29% | 1013.8 hPa | 0 mm | - | 0 W/m² | - |
| 1777537081 | 20.56° C | 28% | 1013.7 hPa | 0 mm | - | 0 W/m² | - |
| 1777536777 | 20.56° C | 28% | 1013.9 hPa | 0 mm | - | 0 W/m² | - |
| 1777536475 | 20° C | 28% | 1013.8 hPa | 0 mm | - | 0 W/m² | - |
| 1777536171 | 21.11° C | 28% | 1013.9 hPa | 0 mm | - | 0 W/m² | - |
| 1777535867 | 21.11° C | 27% | 1013.9 hPa | 0 mm | - | 0 W/m² | - |
| 1777535564 | 21.11° C | 27% | 1014 hPa | 0 mm | - | 0 W/m² | - |
| 1777535261 | 21.11° C | 26% | 1013.9 hPa | 0 mm | - | 0 W/m² | - |
| 1777534958 | 21.11° C | 26% | 1013.6 hPa | 0 mm | - | 0 W/m² | - |
| 1777534654 | 21.11° C | 26% | 1013.7 hPa | 0 mm | - | 0 W/m² | - |
| 1777534352 | 21.67° C | 25% | 1014.5 hPa | 0 mm | - | 0 W/m² | - |
| 1777534049 | 21.67° C | 26% | 1014.4 hPa | 0 mm | - | 0 W/m² | - |
| 1777533747 | 22.22° C | 25% | 1014.3 hPa | 0 mm | - | 0 W/m² | - |
| 1777533442 | 22.22° C | 25% | 1014.6 hPa | 0 mm | - | 0 W/m² | - |
| 1777533138 | 22.22° C | 25% | 1014.6 hPa | 0 mm | - | 0 W/m² | - |
| 1777532837 | 22.22° C | 24% | 1014.4 hPa | 0 mm | - | 0 W/m² | - |
| 1777532532 | 22.22° C | 25% | 1014.4 hPa | 0 mm | - | 0 W/m² | - |
* Rain latest hour (hover to see other rain measurements)
** Current wind speed in m/s (hover to see current wind gust speed)